Torna al catalogo

CHUANG XIN 26

CX-26

AttivoScienzaLEO
NORAD 69972·PAYLOAD·🇨🇳 China

Lanciato Jul 10, 2026 da Wenchang Space Launch Site

Loading…

Prossimi Passaggi (prossime 24 ore)

TLE

AggiornatoSource: Space-Track

Epoca: Sep 14, 2026, 20:01 UTC

1 69972U 26158A   26257.83422767 -.00000150  00000-0  43575-5 0  9992
2 69972  49.9852  20.2777 0005184 159.6457 200.4664 14.25129496  9499

Traccia CHUANG XIN 26 in tempo reale con AllMySat

Download on the App Store